Time,TemperatureF,DewpointF,PressureIn,WindDirection,WindDirectionDegrees,WindSpeedMPH,WindSpeedGustMPH,Humidity,HourlyPrecipIn,Conditions,Clouds,dailyrainin,SoftwareType,DateUTC
2013-10-07 05:24:00,38.0,0.0,30.02,ENE,66,3.0,5.0,23,-99.99,,,-99.99,,2013-10-07 12:24:00,
2013-10-07 05:32:00,39.0,0.0,30.02,ENE,72,3.0,5.0,25,-99.99,,,-99.99,,2013-10-07 12:32:00,
2013-10-07 05:40:00,40.0,0.0,30.02,ESE,103,3.0,5.0,23,-99.99,,,-99.99,,2013-10-07 12:40:00,
2013-10-07 05:44:00,40.0,0.0,30.02,ESE,102,3.0,5.0,23,-99.99,,,-99.99,,2013-10-07 12:44:00,
2013-10-07 05:52:00,42.0,0.0,30.03,ESE,118,2.0,3.0,22,-99.99,,,-99.99,,2013-10-07 12:52:00,
2013-10-07 06:00:00,42.0,0.0,30.02,ESE,121,0.0,2.0,25,-99.99,,,-99.99,,2013-10-07 13:00:00,
2013-10-07 06:08:00,42.0,0.0,30.02,ESE,121,0.0,1.0,25,-99.99,,,-99.99,,2013-10-07 13:08:00,
2013-10-07 06:16:00,42.0,0.0,30.03,SE,131,0.0,1.0,21,-99.99,,,-99.99,,2013-10-07 13:16:00,
2013-10-07 06:20:00,43.0,0.0,30.03,SSE,150,1.0,1.0,21,-99.99,,,-99.99,,2013-10-07 13:20:00,
2013-10-07 06:28:00,42.0,0.0,30.03,SSE,149,0.0,1.0,22,-99.99,,,-99.99,,2013-10-07 13:28:00,
2013-10-07 06:48:00,42.0,0.0,30.03,SW,234,2.0,2.0,24,-99.99,,,-99.99,,2013-10-07 13:48:00,
2013-10-07 06:56:00,42.0,0.0,30.03,SW,222,1.0,3.0,24,-99.99,,,-99.99,,2013-10-07 13:56:00,
2013-10-07 07:04:00,42.0,0.0,30.03,SSW,211,2.0,3.0,26,-99.99,,,-99.99,,2013-10-07 14:04:00,
2013-10-07 07:12:00,41.0,0.0,30.03,WSW,237,1.0,5.0,25,-99.99,,,-99.99,,2013-10-07 14:12:00,
2013-10-07 07:20:00,41.0,0.0,30.03,WSW,250,0.0,3.0,26,-99.99,,,-99.99,,2013-10-07 14:20:00,
2013-10-07 07:28:00,40.0,0.0,30.03,WSW,250,0.0,1.0,25,-99.99,,,-99.99,,2013-10-07 14:28:00,
2013-10-07 07:36:00,40.0,0.0,30.03,NNW,327,1.0,2.0,26,-99.99,,,-99.99,,2013-10-07 14:36:00,
2013-10-07 07:44:00,40.0,0.0,30.03,WNW,302,2.0,2.0,25,-99.99,,,-99.99,,2013-10-07 14:44:00,
2013-10-07 07:52:00,41.0,0.0,30.04,WNW,282,3.0,3.0,27,-99.99,,,-99.99,,2013-10-07 14:52:00,
2013-10-07 08:04:00,44.0,0.0,30.04,WNW,291,3.0,6.0,20,-99.99,,,-99.99,,2013-10-07 15:04:00,
2013-10-07 08:12:00,46.0,0.0,30.04,WNW,288,2.0,5.0,21,-99.99,,,-99.99,,2013-10-07 15:12:00,
2013-10-07 08:20:00,51.0,0.0,30.05,West,281,0.0,2.0,19,-99.99,,,-99.99,,2013-10-07 15:20:00,
2013-10-07 08:28:00,54.0,0.0,30.05,NNE,21,1.0,2.0,17,-99.99,,,-99.99,,2013-10-07 15:28:00,
2013-10-07 08:36:00,54.0,0.0,30.05,NE,55,2.0,2.0,16,-99.99,,,-99.99,,2013-10-07 15:36:00,
2013-10-07 08:44:00,52.0,0.0,30.05,ENE,63,5.0,5.0,20,-99.99,,,-99.99,,2013-10-07 15:44:00,
2013-10-07 08:52:00,52.0,0.0,30.05,ESE,112,3.0,5.0,19,-99.99,,,-99.99,,2013-10-07 15:52:00,
2013-10-07 09:00:00,53.0,0.0,30.05,East,88,3.0,5.0,19,-99.99,,,-99.99,,2013-10-07 16:00:00,
2013-10-07 09:08:00,53.0,0.0,30.04,ESE,108,2.0,5.0,17,-99.99,,,-99.99,,2013-10-07 16:08:00,
2013-10-07 09:16:00,54.0,0.0,30.05,SE,128,2.0,5.0,17,-99.99,,,-99.99,,2013-10-07 16:16:00,
2013-10-07 09:24:00,56.0,0.0,30.05,East,89,2.0,5.0,16,-99.99,,,-99.99,,2013-10-07 16:24:00,
2013-10-07 09:32:00,58.0,0.0,30.04,East,98,2.0,5.0,17,-99.99,,,-99.99,,2013-10-07 16:32:00,
2013-10-07 09:40:00,60.0,0.0,30.05,SSW,196,0.0,3.0,17,-99.99,,,-99.99,,2013-10-07 16:40:00,
2013-10-07 09:48:00,60.0,0.0,30.05,ESE,118,0.0,1.0,15,-99.99,,,-99.99,,2013-10-07 16:48:00,
2013-10-07 09:56:00,63.0,0.0,30.05,WNW,292,0.0,1.0,14,-99.99,,,-99.99,,2013-10-07 16:56:00,
2013-10-07 10:04:00,64.0,0.0,30.04,SE,132,0.0,1.0,15,-99.99,,,-99.99,,2013-10-07 17:04:00,
2013-10-07 10:12:00,67.0,0.0,30.04,ENE,65,0.0,2.0,15,-99.99,,,-99.99,,2013-10-07 17:12:00,
2013-10-07 10:20:00,66.0,0.0,30.04,NNE,25,0.0,2.0,13,-99.99,,,-99.99,,2013-10-07 17:20:00,
2013-10-07 10:28:00,68.0,0.0,30.04,WNW,295,0.0,1.0,14,-99.99,,,-99.99,,2013-10-07 17:28:00,
2013-10-07 10:36:00,70.0,0.0,30.03,NW,318,1.0,2.0,14,-99.99,,,-99.99,,2013-10-07 17:36:00,
2013-10-07 10:44:00,71.0,0.0,30.03,South,191,0.0,2.0,14,-99.99,,,-99.99,,2013-10-07 17:44:00,
2013-10-07 10:52:00,70.0,0.0,30.03,NE,34,1.0,3.0,12,-99.99,,,-99.99,,2013-10-07 17:52:00,
2013-10-07 11:00:00,71.0,0.0,30.03,SE,134,1.0,3.0,11,-99.99,,,-99.99,,2013-10-07 18:00:00,
2013-10-07 11:08:00,70.0,0.0,30.02,East,86,1.0,3.0,14,-99.99,,,-99.99,,2013-10-07 18:08:00,
2013-10-07 11:16:00,74.0,0.0,30.02,North,353,0.0,3.0,13,-99.99,,,-99.99,,2013-10-07 18:16:00,
2013-10-07 11:24:00,74.0,0.0,30.02,SE,132,2.0,3.0,11,-99.99,,,-99.99,,2013-10-07 18:24:00,
2013-10-07 11:32:00,73.0,0.0,30.01,East,99,1.0,2.0,12,-99.99,,,-99.99,,2013-10-07 18:32:00,
2013-10-07 11:40:00,74.0,0.0,30.01,East,86,0.0,2.0,13,-99.99,,,-99.99,,2013-10-07 18:40:00,
2013-10-07 11:48:00,74.0,0.0,30.01,North,356,0.0,2.0,11,-99.99,,,-99.99,,2013-10-07 18:48:00,
2013-10-07 11:56:00,78.0,0.0,30.00,WNW,303,2.0,3.0,10,-99.99,,,-99.99,,2013-10-07 18:56:00,
2013-10-07 12:04:00,76.0,0.0,30.00,NNE,26,1.0,3.0,10,-99.99,,,-99.99,,2013-10-07 19:04:00,
2013-10-07 12:12:00,77.0,0.0,29.99,ENE,71,3.0,5.0,14,-99.99,,,-99.99,,2013-10-07 19:12:00,
2013-10-07 12:20:00,77.0,0.0,29.99,ESE,116,0.0,5.0,12,-99.99,,,-99.99,,2013-10-07 19:20:00,
2013-10-07 12:28:00,77.0,0.0,29.98,NE,37,3.0,5.0,10,-99.99,,,-99.99,,2013-10-07 19:28:00,
2013-10-07 12:36:00,77.0,0.0,29.98,ENE,63,3.0,5.0,12,-99.99,,,-99.99,,2013-10-07 19:36:00,
2013-10-07 12:44:00,78.0,0.0,29.97,SSW,206,3.0,5.0,14,-99.99,,,-99.99,,2013-10-07 19:44:00,
2013-10-07 12:52:00,79.0,0.0,29.97,West,278,2.0,5.0,10,-99.99,,,-99.99,,2013-10-07 19:52:00,
2013-10-07 13:00:00,78.0,0.0,29.96,SE,131,1.0,5.0,10,-99.99,,,-99.99,,2013-10-07 20:00:00,
2013-10-07 13:08:00,79.0,0.0,29.95,ESE,114,2.0,9.0,12,-99.99,,,-99.99,,2013-10-07 20:08:00,
2013-10-07 13:16:00,81.0,0.0,29.95,SSE,157,5.0,9.0,9,-99.99,,,-99.99,,2013-10-07 20:16:00,
2013-10-07 13:24:00,78.0,0.0,29.95,SE,124,2.0,7.0,10,-99.99,,,-99.99,,2013-10-07 20:24:00,
2013-10-07 13:32:00,80.0,0.0,29.94,South,174,3.0,7.0,12,-99.99,,,-99.99,,2013-10-07 20:32:00,
2013-10-07 13:40:00,80.0,0.0,29.94,SSW,194,5.0,7.0,10,-99.99,,,-99.99,,2013-10-07 20:40:00,
2013-10-07 13:48:00,81.0,0.0,29.93,East,101,2.0,7.0,10,-99.99,,,-99.99,,2013-10-07 20:48:00,
2013-10-07 13:56:00,81.0,0.0,29.93,SE,138,9.0,10.0,10,-99.99,,,-99.99,,2013-10-07 20:56:00,
2013-10-07 14:04:00,82.0,0.0,29.93,South,180,6.0,9.0,12,-99.99,,,-99.99,,2013-10-07 21:04:00,
2013-10-07 14:12:00,80.0,0.0,29.92,SSE,168,3.0,9.0,12,-99.99,,,-99.99,,2013-10-07 21:12:00,
2013-10-07 14:20:00,82.0,0.0,29.92,SW,215,6.0,7.0,12,-99.99,,,-99.99,,2013-10-07 21:20:00,
2013-10-07 14:28:00,82.0,0.0,29.92,SSE,166,0.0,9.0,12,-99.99,,,-99.99,,2013-10-07 21:28:00,
2013-10-07 14:36:00,81.0,0.0,29.91,SSE,150,5.0,9.0,10,-99.99,,,-99.99,,2013-10-07 21:36:00,
2013-10-07 14:44:00,81.0,0.0,29.91,SE,142,5.0,9.0,14,-99.99,,,-99.99,,2013-10-07 21:44:00,
2013-10-07 14:52:00,83.0,0.0,29.90,SW,220,7.0,8.0,10,-99.99,,,-99.99,,2013-10-07 21:52:00,
2013-10-07 15:00:00,82.0,0.0,29.90,SSW,202,2.0,8.0,10,-99.99,,,-99.99,,2013-10-07 22:00:00,
2013-10-07 15:08:00,82.0,0.0,29.90,SSE,148,7.0,10.0,14,-99.99,,,-99.99,,2013-10-07 22:08:00,
2013-10-07 15:16:00,82.0,0.0,29.90,SE,140,8.0,14.0,10,-99.99,,,-99.99,,2013-10-07 22:16:00,
2013-10-07 15:24:00,82.0,0.0,29.89,SSW,199,3.0,14.0,10,-99.99,,,-99.99,,2013-10-07 22:24:00,
2013-10-07 15:32:00,82.0,0.0,29.89,SSW,204,9.0,15.0,10,-99.99,,,-99.99,,2013-10-07 22:32:00,
2013-10-07 15:40:00,83.0,0.0,29.89,SSE,167,9.0,15.0,12,-99.99,,,-99.99,,2013-10-07 22:40:00,
2013-10-07 15:48:00,84.0,0.0,29.89,South,175,15.0,16.0,12,-99.99,,,-99.99,,2013-10-07 22:48:00,
2013-10-07 15:56:00,84.0,0.0,29.89,SSE,149,9.0,16.0,11,-99.99,,,-99.99,,2013-10-07 22:56:00,
2013-10-07 16:04:00,83.0,0.0,29.88,SSE,163,8.0,14.0,10,-99.99,,,-99.99,,2013-10-07 23:04:00,
2013-10-07 16:12:00,84.0,0.0,29.88,South,188,9.0,14.0,10,-99.99,,,-99.99,,2013-10-07 23:12:00,
2013-10-07 16:20:00,83.0,0.0,29.88,SW,214,8.0,14.0,11,-99.99,,,-99.99,,2013-10-07 23:20:00,
2013-10-07 16:28:00,83.0,0.0,29.87,SSE,168,9.0,12.0,11,-99.99,,,-99.99,,2013-10-07 23:28:00,
2013-10-07 16:36:00,84.0,0.0,29.87,SSE,155,6.0,12.0,11,-99.99,,,-99.99,,2013-10-07 23:36:00,
2013-10-07 16:44:00,83.0,0.0,29.86,SE,141,12.0,12.0,11,-99.99,,,-99.99,,2013-10-07 23:44:00,
2013-10-07 16:52:00,83.0,0.0,29.86,SE,135,7.0,15.0,11,-99.99,,,-99.99,,2013-10-07 23:52:00,
2013-10-07 17:00:00,83.0,0.0,29.86,SSE,162,7.0,13.0,12,-99.99,,,-99.99,,2013-10-08 00:00:00,
2013-10-07 17:08:00,83.0,0.0,29.86,SSE,153,8.0,14.0,10,-99.99,,,-99.99,,2013-10-08 00:08:00,
2013-10-07 17:16:00,83.0,0.0,29.86,SE,136,9.0,12.0,11,-99.99,,,-99.99,,2013-10-08 00:16:00,
2013-10-07 17:24:00,83.0,0.0,29.85,South,175,12.0,13.0,10,-99.99,,,-99.99,,2013-10-08 00:24:00,
2013-10-07 17:32:00,83.0,0.0,29.85,South,180,10.0,13.0,10,-99.99,,,-99.99,,2013-10-08 00:32:00,
2013-10-07 17:40:00,83.0,0.0,29.85,SSW,199,6.0,14.0,14,-99.99,,,-99.99,,2013-10-08 00:40:00,
2013-10-07 17:48:00,83.0,0.0,29.85,SSW,206,9.0,13.0,10,-99.99,,,-99.99,,2013-10-08 00:48:00,
2013-10-07 17:56:00,82.0,0.0,29.85,SSW,201,13.0,14.0,10,-99.99,,,-99.99,,2013-10-08 00:56:00,
2013-10-07 18:04:00,82.0,0.0,29.84,South,183,6.0,13.0,10,-99.99,,,-99.99,,2013-10-08 01:04:00,
2013-10-07 18:12:00,80.0,0.0,29.84,South,177,7.0,10.0,10,-99.99,,,-99.99,,2013-10-08 01:12:00,
2013-10-07 18:20:00,79.0,0.0,29.83,South,186,5.0,9.0,13,-99.99,,,-99.99,,2013-10-08 01:20:00,
2013-10-07 18:28:00,78.0,0.0,29.83,SSW,196,7.0,9.0,11,-99.99,,,-99.99,,2013-10-08 01:28:00,
2013-10-07 18:36:00,78.0,0.0,29.84,SSW,195,10.0,14.0,13,-99.99,,,-99.99,,2013-10-08 01:36:00,
2013-10-07 18:44:00,78.0,0.0,29.84,SSW,195,10.0,18.0,13,-99.99,,,-99.99,,2013-10-08 01:44:00,
2013-10-07 18:52:00,77.0,0.0,29.84,SSW,192,10.0,17.0,13,-99.99,,,-99.99,,2013-10-08 01:52:00,
2013-10-07 19:00:00,77.0,0.0,29.84,South,171,8.0,17.0,12,-99.99,,,-99.99,,2013-10-08 02:00:00,
2013-10-07 19:08:00,76.0,0.0,29.84,SSW,203,9.0,14.0,13,-99.99,,,-99.99,,2013-10-08 02:08:00,
2013-10-07 19:16:00,76.0,0.0,29.84,South,184,10.0,14.0,12,-99.99,,,-99.99,,2013-10-08 02:16:00,
2013-10-07 19:24:00,75.0,0.0,29.83,South,183,17.0,17.0,15,-99.99,,,-99.99,,2013-10-08 02:24:00,
2013-10-07 19:32:00,74.0,0.0,29.83,SSW,195,9.0,17.0,13,-99.99,,,-99.99,,2013-10-08 02:32:00,
2013-10-07 19:40:00,73.0,0.0,29.83,SSW,205,9.0,15.0,14,-99.99,,,-99.99,,2013-10-08 02:40:00,
2013-10-07 19:48:00,72.0,0.0,29.84,SSW,201,8.0,12.0,14,-99.99,,,-99.99,,2013-10-08 02:48:00,
2013-10-07 19:56:00,71.0,0.0,29.84,SSW,209,8.0,10.0,18,-99.99,,,-99.99,,2013-10-08 02:56:00,
2013-10-07 20:04:00,70.0,0.0,29.84,SSW,212,7.0,10.0,14,-99.99,,,-99.99,,2013-10-08 03:04:00,
2013-10-07 20:12:00,71.0,0.0,29.84,SSW,203,8.0,12.0,17,-99.99,,,-99.99,,2013-10-08 03:12:00,
2013-10-07 20:20:00,72.0,0.0,29.84,SSW,196,7.0,12.0,12,-99.99,,,-99.99,,2013-10-08 03:20:00,
2013-10-07 20:28:00,70.0,0.0,29.84,South,174,8.0,10.0,13,-99.99,,,-99.99,,2013-10-08 03:28:00,
2013-10-07 20:36:00,70.0,0.0,29.84,SSW,197,10.0,12.0,16,-99.99,,,-99.99,,2013-10-08 03:36:00,
2013-10-07 20:44:00,69.0,0.0,29.84,SSW,192,9.0,12.0,15,-99.99,,,-99.99,,2013-10-08 03:44:00,
2013-10-07 20:52:00,68.0,0.0,29.85,South,191,7.0,10.0,16,-99.99,,,-99.99,,2013-10-08 03:52:00,
2013-10-07 21:00:00,67.0,0.0,29.84,South,176,8.0,9.0,14,-99.99,,,-99.99,,2013-10-08 04:00:00,
2013-10-07 21:04:00,66.0,0.0,29.84,South,179,7.0,9.0,16,-99.99,,,-99.99,,2013-10-08 04:04:00,
2013-10-07 21:08:00,66.0,0.0,29.84,SSE,161,7.0,9.0,14,-99.99,,,-99.99,,2013-10-08 04:08:00,
2013-10-07 21:16:00,66.0,0.0,29.84,SSE,164,7.0,10.0,15,-99.99,,,-99.99,,2013-10-08 04:16:00,
2013-10-07 21:24:00,66.0,0.0,29.84,South,169,6.0,10.0,17,-99.99,,,-99.99,,2013-10-08 04:24:00,
2013-10-07 21:32:00,67.0,0.0,29.84,South,176,5.0,10.0,14,-99.99,,,-99.99,,2013-10-08 04:32:00,
2013-10-07 21:40:00,66.0,0.0,29.84,South,190,5.0,8.0,15,-99.99,,,-99.99,,2013-10-08 04:40:00,
2013-10-07 21:48:00,66.0,0.0,29.84,WSW,251,5.0,8.0,16,-99.99,,,-99.99,,2013-10-08 04:48:00,
2013-10-07 21:52:00,66.0,0.0,29.84,WSW,257,6.0,8.0,16,-99.99,,,-99.99,,2013-10-08 04:52:00,
2013-10-07 22:00:00,66.0,0.0,29.84,WSW,244,7.0,9.0,15,-99.99,,,-99.99,,2013-10-08 05:00:00,
2013-10-07 22:08:00,66.0,0.0,29.84,SW,226,10.0,14.0,14,-99.99,,,-99.99,,2013-10-08 05:08:00,
2013-10-07 22:16:00,66.0,0.0,29.84,SSW,210,10.0,14.0,16,-99.99,,,-99.99,,2013-10-08 05:16:00,
2013-10-07 22:24:00,66.0,0.0,29.84,WSW,239,7.0,12.0,14,-99.99,,,-99.99,,2013-10-08 05:24:00,
2013-10-07 22:28:00,68.0,0.0,29.84,WSW,245,8.0,10.0,13,-99.99,,,-99.99,,2013-10-08 05:28:00,
2013-10-07 22:36:00,69.0,0.0,29.84,WSW,241,10.0,14.0,13,-99.99,,,-99.99,,2013-10-08 05:36:00,
2013-10-07 22:44:00,62.0,0.0,29.84,West,260,3.0,12.0,15,-99.99,,,-99.99,,2013-10-08 05:44:00,
2013-10-07 22:52:00,64.0,0.0,29.84,West,277,3.0,9.0,16,-99.99,,,-99.99,,2013-10-08 05:52:00,
2013-10-07 23:00:00,57.0,0.0,29.84,East,82,2.0,5.0,19,-99.99,,,-99.99,,2013-10-08 06:00:00,
2013-10-07 23:08:00,56.0,0.0,29.84,ESE,123,6.0,6.0,18,-99.99,,,-99.99,,2013-10-08 06:08:00,
2013-10-07 23:16:00,54.0,0.0,29.84,NNE,28,2.0,8.0,18,-99.99,,,-99.99,,2013-10-08 06:16:00,
2013-10-07 23:24:00,58.0,0.0,29.84,East,81,1.0,5.0,17,-99.99,,,-99.99,,2013-10-08 06:24:00,
2013-10-07 23:32:00,62.0,0.0,29.83,SSE,168,2.0,5.0,17,-99.99,,,-99.99,,2013-10-08 06:32:00,
2013-10-07 23:40:00,60.0,0.0,29.83,SSW,202,2.0,3.0,18,-99.99,,,-99.99,,2013-10-08 06:40:00,
2013-10-07 23:48:00,60.0,0.0,29.83,South,186,2.0,3.0,18,-99.99,,,-99.99,,2013-10-08 06:48:00,
2013-10-07 23:56:00,59.0,0.0,29.83,SSW,205,3.0,3.0,19,-99.99,,,-99.99,,2013-10-08 06:56:00,